Flag for Malta Weather past 2 weeks in Valletta, Malta

68 °F

Passing clouds.

Feels Like: 68 °F
Forecast: 68 / 82 °F
Wind: 1 mph from North

Location: Luqa

Current Time: Oct 4, 2015 at 7:20:30 AM

Latest Report: Oct 4, 2015 at 5:15 AM

Visibility: 5 mi

Pressure: 30.21 "Hg

Humidity: 100%

Dew point: 68 °F

Location of VallettaLocation

Historic Weather in Valletta — Graph


Valletta temperature yesterday

Maximum temperature yesterday: 79 °F (at 3:15 PM)
Minimum temperature yesterday: 68 °F (at 3:45 AM)
Average temperature yesterday: 73 °F

Past Weeks' High & Low Weather Summary

High95 °F (Sep 19, 2:15 PM)100% (Oct 2, 5:45 AM)30.21 "Hg (Oct 2, 5:45 AM)
Low64 °F (Sep 30, 3:15 AM)26% (Sep 19, 2:45 PM)29.83 "Hg (Sep 21, 4:15 AM)
Average74 °F68%29.99 "Hg
* Reported Sep 19 5:15 AM — Oct 4 5:15 AM, Valletta, Weather by CustomWeather, © 2015

Note: Actual official high and low records may vary slightly from our data, if they occured in-between our weather recording intervals... More about our weather records


Valletta weather history for previous 24 hours

Time TempWeatherWind HumidityBarometerVisibility
5:15 AM
Sun, Oct 4
68 °FPassing clouds.1 mph100%30.21 "Hg5 mi
4:45 AM68 °FFog.1 mph100%30.21 "Hg5 mi
4:15 AM68 °FFog.1 mph100%30.21 "Hg5 mi
3:45 AM68 °FFog.1 mph100%30.21 "Hg5 mi
3:15 AM70 °FFog.1 mph94%30.21 "Hg5 mi
2:45 AM70 °FMild.1 mph94%30.21 "Hg5 mi
2:15 AM70 °FMild.2 mph94%30.21 "Hg6 mi
1:45 AM70 °FClear.3 mph94%30.21 "Hg10 mi
1:15 AM70 °FMild.3 mph94%30.21 "Hg4 mi
12:45 AM70 °FClear.1 mph94%30.21 "Hg10 mi
11:15 PM
Sat, Oct 3
72 °FClear.5 mph88%30.21 "Hg10 mi
10:45 PM72 °FPassing clouds.3 mph88%30.21 "HgN/A
10:15 PM72 °FPassing clouds.5 mph88%30.21 "HgN/A
9:45 PM72 °FPassing clouds.5 mph88%30.21 "HgN/A
9:15 PM72 °FPassing clouds.5 mph94%30.21 "HgN/A
8:45 PM72 °FPassing clouds.6 mph94%30.18 "HgN/A
8:15 PM73 °FPassing clouds.3 mph89%30.18 "HgN/A
7:45 PM73 °FPassing clouds.3 mph89%30.18 "HgN/A
7:15 PM73 °FPassing clouds.5 mph89%30.18 "HgN/A
6:45 PM75 °FPassing clouds.7 mph83%30.18 "HgN/A
6:15 PM75 °FScattered clouds.7 mph78%30.18 "HgN/A
5:45 PM77 °FScattered clouds.8 mph74%30.15 "HgN/A
5:15 PM77 °FPassing clouds.7 mph69%30.15 "HgN/A
4:45 PM77 °FPassing clouds.8 mph69%30.15 "HgN/A
4:15 PM77 °FPassing clouds.7 mph69%30.18 "HgN/A
3:45 PM79 °FPassing clouds.7 mph70%30.18 "HgN/A
3:15 PM79 °FScattered clouds.6 mph70%30.18 "HgN/A
2:45 PM77 °FScattered clouds.7 mph74%30.18 "HgN/A
2:15 PM77 °FScattered clouds.9 mph74%30.18 "HgN/A
1:45 PM77 °FScattered clouds.8 mph74%30.21 "HgN/A
1:15 PM77 °FScattered clouds.7 mph74%30.21 "HgN/A
12:45 PM77 °FScattered clouds.8 mph74%30.21 "HgN/A
12:15 PM77 °FScattered clouds.8 mph74%30.21 "HgN/A
11:45 AM77 °FScattered clouds.7 mph74%30.21 "HgN/A
11:15 AM77 °FScattered clouds.6 mph74%30.21 "HgN/A
10:45 AM77 °FScattered clouds.3 mph74%30.21 "HgN/A
10:15 AM75 °FScattered clouds.3 mph78%30.21 "HgN/A
9:45 AM75 °FScattered clouds.3 mph83%30.21 "HgN/A
9:15 AM75 °FPassing clouds.2 mph83%30.21 "HgN/A
8:45 AM73 °FPassing clouds.2 mph89%30.21 "HgN/A
8:15 AM72 °FPassing clouds.1 mph94%30.18 "HgN/A
7:45 AM68 °FPassing clouds.2 mph100%30.18 "Hg5 mi
7:15 AM68 °FPassing clouds.1 mph94%30.18 "Hg5 mi
Weather by CustomWeather, © 2015

See weather overviewHow to use our weather pages